Wind_Speed
20 20 20 20 21 21 22 22 22 22 22 23 23 24 25 26 26 26 26 26 26 26 27 27 27 27 26 26 24 25 27 28 30 32 35 36 36 36 38 40 39 37 35 35 36 37 36 35 34 34 34 34 33 31 30 31 32 34 35 35 34 34 33 33 33 31 30 29 27
20 20 21 21 22 22 22 23 23 23 23 24 24 25 26 26 27 28 28 27 27 27 27 28 28 27 26 25 24 25 26 27 28 30 33 36 36 36 36 37 37 35 34 33 34 35 36 36 36 35 36 37 36 33 31 30 30 32 33 34 33 32 32 31 30 29 29 28 27
20 21 21 22 22 23 23 24 24 25 26 26 26 26 26 27 27 28 28 29 29 29 29 29 29 27 25 25 25 25 25 25 26 27 30 33 34 34 33 34 36 37 34 32 31 33 35 36 37 37 37 37 37 35 34 32 31 31 33 33 33 31 29 29 28 28 28 26 25
21 21 22 22 23 24 24 25 26 27 27 27 27 27 27 27 27 28 29 29 30 29 29 29 29 28 26 26 26 25 25 25 26 27 28 30 32 33 33 35 36 36 35 32 32 32 34 35 36 37 37 37 36 35 34 34 32 32 32 32 32 31 29 28 28 28 27 25 23
22 22 22 23 24 24 25 25 26 27 28 28 28 28 28 28 28 29 29 29 29 29 29 30 30 30 28 27 27 27 27 27 28 29 30 31 32 33 33 34 35 36 36 35 34 33 33 35 35 35 35 35 34 33 33 32 32 31 31 31 31 31 30 29 29 28 28 27 23
23 23 23 24 24 25 25 25 26 27 28 28 29 29 30 29 29 29 30 30 31 31 32 32 32 31 31 29 30 30 31 30 29 29 30 30 31 32 32 32 33 34 34 34 33 33 34 34 34 33 33 33 32 32 31 30 29 29 29 29 30 30 30 30 28 28 28 28 25
24 25 25 25 25 25 25 26 26 27 28 28 29 30 31 31 31 32 33 33 33 33 34 33 33 32 31 30 31 31 31 30 29 29 29 29 29 29 30 30 30 30 31 32 32 32 33 33 32 31 31 31 31 30 30 29 29 29 28 29 29 29 28 27 26 26 27 27 26
25 25 25 25 25 26 26 26 27 27 28 28 29 30 32 33 33 34 34 34 34 34 34 34 33 32 31 30 30 31 32 33 31 30 30 30 29 29 29 29 29 28 29 29 30 31 31 31 30 30 30 31 31 30 30 30 29 28 28 28 28 28 26 24 24 25 26 27 27
26 26 26 26 26 26 27 27 27 28 29 30 31 32 32 33 34 35 35 35 35 34 34 34 34 33 32 31 31 32 34 34 33 32 31 31 30 29 28 28 27 27 27 28 28 29 29 29 28 28 29 30 31 31 31 31 30 29 28 27 28 27 26 25 24 26 27 28 27
27 27 27 27 27 27 28 28 28 29 29 30 31 32 33 33 34 34 34 34 35 34 34 34 34 34 34 33 32 33 34 34 34 33 31 29 29 29 29 28 28 27 26 26 27 28 28 27 26 26 27 29 30 31 32 33 32 30 29 28 28 28 27 27 28 28 29 29 28
28 28 28 28 28 28 29 29 29 29 30 30 31 32 32 33 33 34 34 34 35 34 34 34 34 35 35 34 33 33 34 35 34 33 31 30 30 29 29 28 29 28 27 27 27 27 26 26 25 25 25 26 28 30 32 33 33 32 30 30 30 29 29 29 30 30 30 30 30
29 29 28 28 29 29 29 29 29 29 30 30 31 32 32 32 33 34 34 35 35 34 34 33 34 34 35 34 33 33 34 35 35 33 32 32 30 29 28 28 28 28 28 27 27 26 26 25 25 25 25 25 26 28 30 32 33 33 32 32 32 31 31 31 31 31 30 30 30
29 29 29 29 29 29 29 29 29 29 29 30 31 31 32 32 33 33 34 34 34 33 33 32 33 33 34 34 33 33 35 36 36 33 31 31 30 29 28 28 27 27 27 27 27 26 26 25 25 26 26 26 25 26 29 31 32 33 34 33 32 32 32 32 32 32 31 31 30
30 30 30 30 29 29 29 29 28 28 29 30 31 31 32 32 33 33 33 34 34 33 32 32 31 32 32 32 33 34 36 37 37 34 32 30 30 29 28 27 28 28 28 28 28 27 26 26 26 27 28 28 27 27 28 30 32 33 34 34 33 33 32 32 32 32 32 32 30
30 30 30 30 30 29 29 28 28 28 29 30 31 31 31 32 32 33 33 34 34 34 33 31 31 31 33 33 33 35 36 38 37 35 33 31 30 30 29 28 28 28 28 28 28 27 27 26 27 28 29 29 28 28 29 29 30 32 33 34 34 33 33 33 32 32 33 33 32
31 31 31 30 30 29 29 28 28 28 28 30 31 31 32 32 33 33 34 34 35 34 33 32 32 33 33 33 33 34 36 37 37 36 34 32 31 31 30 29 28 28 28 28 28 27 26 26 27 29 30 30 30 30 30 29 30 31 32 33 33 33 33 33 33 33 33 34 34
31 31 31 31 30 30 29 28 28 28 29 30 31 31 32 32 32 33 33 34 34 34 34 34 33 33 32 32 32 33 34 35 35 34 34 33 32 32 31 30 29 29 29 29 29 28 27 26 27 28 30 30 30 31 30 30 30 30 30 31 31 32 32 33 33 32 33 33 33
32 32 31 31 31 30 29 29 29 29 30 31 31 32 32 32 32 33 34 34 35 35 35 35 35 34 33 33 32 32 32 33 33 34 34 33 32 32 31 31 30 29 29 29 29 29 28 27 27 28 29 30 30 30 30 30 30 29 29 29 30 30 30 31 31 31 32 32 32
32 32 32 31 31 30 30 29 29 29 30 31 31 32 32 32 32 33 34 35 36 36 36 37 36 35 33 33 33 33 33 33 34 34 34 33 32 31 31 30 30 29 29 29 29 29 29 28 28 29 29 29 29 29 29 29 29 29 29 29 29 29 29 29 29 29 30 30 31
32 32 32 31 31 31 30 30 29 30 30 31 32 32 33 33 34 34 35 36 36 36 36 37 37 36 35 35 35 34 32 34 35 35 34 33 32 31 30 30 29 29 29 29 29 30 30 29 30 30 30 30 30 30 30 29 30 29 29 29 29 29 29 29 28 28 29 29 29
32 32 32 32 32 31 31 30 30 30 31 32 33 33 34 34 34 35 35 36 35 35 35 36 37 37 37 36 36 34 32 33 34 35 35 34 32 31 31 30 30 30 30 29 29 30 30 30 31 31 31 31 31 31 31 31 30 30 30 29 29 29 29 29 29 29 28 28 28
32 32 32 32 32 32 31 31 31 31 32 33 33 33 34 34 35 35 35 35 34 35 35 35 36 36 36 36 36 35 34 33 35 35 34 32 32 32 31 31 30 30 30 30 30 30 31 31 31 32 31 31 32 32 32 32 31 30 30 29 29 29 29 28 28 28 28 28 28
33 33 33 33 33 32 32 32 32 32 33 33 34 34 34 34 35 35 36 35 34 34 33 33 34 35 35 35 36 36 35 34 34 35 33 31 31 32 32 31 31 32 32 31 31 32 32 32 32 32 32 32 32 32 32 32 31 30 29 29 29 28 28 27 27 27 27 27 27
34 34 34 33 33 33 33 32 32 33 33 34 34 34 34 34 35 35 36 36 35 34 33 33 33 34 34 35 36 37 36 35 35 35 34 32 31 31 31 32 32 32 32 31 32 33 33 32 33 32 32 32 32 32 31 31 31 31 30 29 29 28 27 27 27 26 26 26 25
34 34 34 34 34 33 33 33 33 33 34 34 35 35 35 35 35 35 35 35 36 35 34 33 33 33 34 34 36 36 37 36 36 36 35 34 32 32 32 33 33 32 32 32 34 35 34 34 33 33 32 31 31 31 31 31 31 31 31 30 30 29 28 27 27 26 26 26 25
35 35 35 34 34 33 33 33 33 33 34 34 35 35 35 35 35 35 35 36 36 35 34 32 32 32 33 33 34 35 36 36 37 37 36 34 34 33 33 33 33 32 31 32 34 35 36 35 35 34 32 31 31 30 30 30 31 31 31 31 30 29 29 28 27 27 26 25 24
35 35 34 34 34 33 33 33 33 34 34 35 35 36 36 35 35 34 35 35 35 35 33 32 32 32 33 33 34 34 35 35 36 36 35 34 33 34 34 33 32 31 30 31 34 36 37 36 36 35 33 31 31 30 30 30 30 31 30 30 30 30 30 29 29 28 27 25 24
35 34 34 34 34 34 34 34 34 34 34 35 35 36 36 36 35 35 34 35 35 34 33 31 32 31 31 31 32 32 33 32 32 32 31 31 31 32 32 31 31 30 29 31 34 37 37 37 37 36 34 32 31 30 30 30 30 30 30 30 30 30 30 30 30 29 28 26 25
35 34 34 34 34 34 34 34 34 34 34 35 35 36 36 36 36 35 34 34 34 33 32 31 31 30 29 29 29 29 28 28 27 27 27 28 28 29 30 29 29 28 29 32 36 38 38 38 37 36 35 33 31 30 30 30 30 30 29 29 30 30 30 30 29 28 27 27 26
35 34 34 34 34 34 34 34 33 34 34 34 35 36 36 37 36 35 35 34 33 32 31 31 31 30 30 28 26 25 25 25 25 25 25 25 26 27 27 26 26 27 30 35 38 40 39 38 37 36 35 34 32 30 30 30 30 30 29 29 30 30 30 29 29 28 28 28 27
34 34 34 34 34 34 34 34 34 34 34 35 35 36 36 37 36 35 34 34 33 32 32 32 33 33 31 28 25 25 25 25 25 24 24 24 25 25 25 24 24 27 31 38 41 40 39 38 37 37 36 34 32 30 30 30 30 29 29 29 30 30 30 29 29 29 29 29 28
34 34 34 33 34 34 34 34 34 34 35 35 36 36 36 36 36 35 35 34 33 32 32 33 34 34 32 28 25 25 26 27 26 25 24 24 25 25 25 24 24 28 34 40 41 39 38 37 37 37 35 34 31 30 30 30 29 29 29 29 30 30 30 29 28 29 29 29 29
34 34 34 34 34 34 34 34 34 35 35 35 36 36 36 36 36 35 35 33 32 32 32 33 33 33 30 28 26 26 27 28 27 26 25 25 25 25 24 23 24 30 37 40 39 38 37 37 37 37 35 33 31 30 29 29 28 28 28 29 30 29 29 28 28 29 29 29 28
34 34 34 34 34 34 35 35 35 35 35 36 36 36 36 36 36 35 34 33 31 31 32 33 34 33 30 26 27 28 28 28 27 26 26 25 25 25 23 21 24 32 39 40 39 38 37 38 37 36 34 32 30 29 29 28 27 27 28 29 28 28 27 27 28 28 28 28 27
34 34 34 34 35 35 35 36 36 36 36 36 36 36 36 36 35 35 34 33 32 31 32 33 34 34 29 23 25 28 28 26 26 25 25 25 25 24 22 21 26 34 40 40 39 38 38 38 37 36 33 31 29 28 28 27 27 27 28 28 27 27 27 27 27 27 27 26 26
34 34 34 35 35 36 36 36 36 36 36 35 35 36 36 36 35 34 33 32 31 31 32 32 33 32 28 24 25 26 26 25 24 24 25 25 25 23 22 23 28 35 39 40 39 38 39 39 37 35 33 29 27 27 26 26 26 27 28 27 27 27 27 26 26 26 25 25 25
34 34 34 35 36 37 37 37 37 36 36 35 35 35 35 35 35 33 31 30 30 30 30 31 31 28 23 22 24 24 24 24 24 23 24 26 25 23 23 27 31 36 39 39 38 39 40 39 37 35 31 27 26 25 25 25 26 26 27 27 27 26 26 25 25 24 24 24 25
34 35 35 36 36 37 38 37 37 36 36 36 35 35 35 34 33 32 30 29 28 28 29 30 29 24 20 23 24 23 22 24 23 23 24 25 24 24 26 30 33 36 38 39 39 40 40 38 36 33 29 25 25 25 25 25 26 26 26 26 26 26 25 24 23 23 23 24 25
35 35 36 36 37 38 38 37 37 36 36 36 35 35 34 33 32 31 29 28 28 28 29 30 29 21 19 24 25 23 22 22 23 23 24 24 24 26 29 32 34 36 38 40 41 40 39 37 35 31 27 25 25 25 25 25 26 26 26 26 25 24 24 22 22 22 22 24 26
36 36 36 37 37 38 38 37 37 36 36 35 34 34 34 33 32 31 30 29 28 28 28 30 28 21 20 25 26 24 22 21 21 22 23 23 24 28 32 33 35 37 39 41 42 41 39 36 33 29 26 24 24 24 25 25 26 26 25 25 24 24 22 21 21 21 22 24 25
36 36 37 37 37 38 37 37 37 36 36 34 34 33 33 33 32 31 30 28 28 27 28 29 27 20 22 27 27 26 23 21 20 21 22 23 26 29 32 33 35 37 39 42 43 42 39 36 32 29 26 24 24 24 25 25 25 25 25 24 24 23 22 21 21 21 22 23 22
Wind_Direction
310 307 305 302 300 298 295 293 291 290 290 290 292 293 294 294 294 293 292 291 289 287 285 282 280 279 279 280 280 279 277 274 271 268 264 261 256 252 250 250 248 242 234 225 218 215 214 215 216 216 215 214 214 215 215 213 212 212 211 211 211 211 211 209 207 205 203 203 202
311 309 307 304 301 298 296 294 292 291 290 289 289 290 291 292 292 292 291 290 289 288 287 284 282 279 278 278 277 277 275 274 273 270 267 264 260 254 249 248 248 247 242 233 223 217 213 211 209 209 211 213 215 216 215 211 210 210 209 209 209 208 208 208 205 201 199 199 198
312 311 308 306 303 300 299 297 295 294 293 291 290 289 288 288 288 288 288 288 288 287 286 285 283 281 280 278 276 274 273 274 273 271 267 264 261 255 248 244 245 246 243 236 226 219 214 208 206 206 207 209 211 211 210 208 207 206 206 206 205 204 203 201 197 193 191 193 193
313 312 309 307 305 302 300 298 297 295 294 292 291 289 286 285 285 285 285 286 286 286 285 284 283 283 282 280 276 273 271 272 273 272 268 264 260 255 250 246 243 242 241 236 229 222 215 208 205 204 204 205 205 205 205 203 201 201 201 201 199 197 195 192 188 184 182 184 185
313 312 310 308 306 303 301 299 297 295 294 293 291 289 287 285 283 282 282 283 283 284 284 284 284 284 283 281 278 273 271 271 271 270 268 265 260 255 250 247 243 241 238 235 230 222 213 208 204 202 202 202 201 201 200 197 195 194 194 194 192 191 188 185 182 179 178 178 179
312 311 309 308 306 305 303 300 298 297 295 293 290 288 286 285 284 282 281 281 281 282 283 284 284 283 282 281 277 274 271 269 267 266 264 260 257 252 247 244 241 238 234 229 224 218 211 206 201 199 198 198 198 198 196 192 188 187 187 187 187 186 184 182 179 177 175 174 174
311 310 309 308 307 306 305 303 301 299 296 293 290 288 286 285 284 283 282 281 280 281 282 283 282 282 281 279 276 273 269 267 265 262 259 256 250 246 242 239 236 232 227 223 218 213 207 203 199 196 194 194 194 194 191 188 185 182 180 180 181 182 180 177 173 171 169 168 167
309 309 308 308 308 307 306 305 303 301 298 295 292 289 287 286 285 284 283 281 280 279 279 280 280 281 280 278 275 271 269 267 264 260 257 254 247 241 238 234 230 225 221 217 213 208 203 200 196 192 190 189 188 188 186 183 180 177 175 174 175 174 172 168 164 162 161 159 158
308 308 308 308 308 308 308 307 305 303 300 297 294 291 288 287 285 284 283 281 279 278 278 277 278 279 279 278 275 272 269 266 263 259 255 251 245 238 232 228 224 219 215 212 208 204 200 196 192 189 187 185 184 184 182 179 176 173 169 167 166 165 162 159 156 154 153 151 149
308 307 308 307 307 308 308 307 306 304 302 299 296 293 290 288 286 284 283 281 280 278 276 274 276 277 278 277 274 272 269 266 262 257 252 245 239 233 228 225 220 215 211 208 206 202 197 193 190 187 185 183 182 180 178 176 173 168 164 162 159 157 155 153 152 151 150 149 147
307 307 306 307 307 307 308 308 307 305 304 301 299 296 293 290 288 286 284 283 281 278 275 273 274 275 276 275 274 272 269 265 259 255 250 245 239 232 226 222 218 214 209 206 204 201 197 193 190 187 184 181 179 176 174 173 170 166 162 160 157 155 154 152 152 151 150 149 148
306 306 306 305 306 307 307 307 307 306 304 302 300 298 295 293 290 288 286 285 282 280 277 275 274 274 275 275 274 272 269 264 258 252 248 244 237 230 223 219 215 211 207 203 200 198 196 194 190 187 183 180 177 174 173 171 168 165 162 159 158 157 155 155 155 154 152 151 150
306 305 305 305 305 305 306 306 306 306 304 303 301 299 297 294 292 290 288 286 285 283 281 278 276 275 275 274 274 273 270 264 256 248 242 239 233 227 222 216 211 206 203 200 198 196 194 193 190 186 182 179 176 174 172 170 168 164 162 160 158 158 157 157 157 156 154 152 151
305 304 304 304 304 304 305 305 305 305 304 303 301 300 298 295 294 292 290 288 286 285 283 281 278 275 274 274 274 273 269 262 253 245 239 236 232 226 220 214 210 205 201 199 198 196 194 192 188 184 181 178 176 174 172 171 168 165 163 161 159 159 158 158 157 156 154 152 150
305 304 303 303 303 303 303 304 304 304 303 302 301 300 298 296 294 292 291 289 287 286 285 282 279 276 274 274 274 272 267 260 252 244 238 234 229 224 219 214 209 205 201 198 197 195 193 191 187 183 180 177 174 173 171 170 169 167 164 162 161 159 159 158 157 156 154 152 150
304 303 303 302 302 302 302 302 303 303 302 301 300 299 297 295 294 292 290 289 287 286 285 283 280 277 275 274 273 271 266 258 250 242 237 233 228 223 217 212 207 203 199 197 196 194 192 189 186 182 178 175 173 172 171 169 168 166 164 163 161 159 158 157 156 155 153 151 149
303 303 302 302 301 301 301 301 301 301 301 300 299 298 296 294 293 291 290 288 287 285 284 283 281 278 276 274 273 270 264 256 248 240 235 230 225 220 216 211 206 201 197 195 193 192 190 186 183 180 178 176 173 171 169 167 166 165 163 161 160 158 157 156 155 154 152 150 148
303 302 302 301 300 300 300 301 301 300 300 300 298 297 296 294 292 291 289 288 286 286 285 283 282 279 277 275 273 269 263 254 246 239 233 227 223 218 214 210 205 200 196 192 190 189 187 183 180 178 175 174 171 168 166 165 164 163 161 160 158 157 156 155 154 153 151 149 147
302 301 301 300 300 300 300 300 300 300 300 299 298 296 294 293 291 290 289 287 286 285 284 283 282 280 278 275 272 268 262 254 246 238 231 225 220 215 211 207 203 198 193 189 187 186 184 180 177 175 173 171 169 167 166 164 162 161 160 159 157 156 155 154 154 153 151 149 147
301 301 300 300 300 300 300 300 300 300 299 299 297 295 293 292 291 289 288 287 286 285 284 282 281 280 278 275 272 267 261 254 246 238 230 224 218 213 208 204 200 196 192 189 186 184 181 178 174 172 170 169 168 167 166 163 162 161 159 158 157 156 155 155 154 153 152 150 149
300 300 300 300 300 299 299 299 299 299 299 298 296 294 292 291 289 288 287 286 285 284 283 282 281 280 278 276 273 268 261 253 244 236 229 223 217 211 206 201 197 194 191 188 184 181 178 175 173 171 168 167 166 166 165 164 163 161 160 159 158 157 156 156 155 155 154 153 152
300 300 300 300 299 298 298 297 298 298 298 297 296 294 292 291 289 288 287 285 284 283 282 282 281 280 279 277 275 271 264 253 243 234 227 221 214 209 204 199 195 192 189 186 182 178 175 172 170 169 167 166 166 165 164 163 161 159 158 158 158 157 157 157 157 156 156 155 155
300 300 300 299 298 297 297 297 297 297 297 297 296 294 293 292 291 289 288 286 284 282 281 281 281 281 280 279 277 273 266 255 243 233 225 218 211 206 201 196 193 190 188 184 180 176 172 170 168 167 165 165 164 163 162 160 159 158 157 156 156 156 156 156 156 156 155 155 155
300 300 299 299 297 297 296 296 296 296 297 297 296 295 294 293 292 291 290 288 286 283 281 280 280 280 280 279 278 274 267 256 243 232 224 216 209 202 197 194 192 189 186 183 178 174 171 168 166 165 164 163 162 160 159 158 157 157 156 155 155 154 155 154 154 154 154 154 155
299 299 298 298 297 296 296 295 296 296 296 297 297 296 295 294 294 293 292 290 288 286 283 281 279 279 278 277 275 272 265 255 242 231 222 214 207 200 196 193 191 189 186 183 177 173 168 165 164 164 162 160 159 158 157 156 156 156 155 154 153 153 152 152 152 152 153 153 154
298 298 298 297 296 296 295 295 295 296 296 297 297 297 296 295 295 294 293 292 290 288 285 282 279 278 277 275 272 268 261 251 238 227 218 211 204 199 195 192 190 189 187 183 177 171 167 164 162 161 160 158 157 156 155 156 155 154 153 153 152 151 151 151 151 152 152 152 152
298 298 297 297 296 296 295 295 296 296 297 297 297 297 297 296 295 294 293 292 291 290 287 284 281 279 277 274 269 263 255 244 232 222 213 207 202 198 194 191 189 188 186 182 175 169 165 162 160 158 157 156 155 154 154 153 153 152 152 151 151 151 151 151 151 151 150 150 148
298 297 297 296 296 295 295 295 296 296 297 297 297 297 297 296 295 294 292 292 292 291 289 285 283 280 276 271 265 258 249 237 225 216 209 205 201 197 192 189 188 187 185 179 173 167 163 160 158 156 154 153 153 152 152 151 151 151 151 151 151 151 151 150 150 150 148 146 144
297 297 297 296 296 295 295 296 296 296 296 297 297 297 297 296 295 294 292 292 291 290 288 286 283 279 273 266 259 251 241 229 218 211 207 205 202 197 192 188 186 185 182 176 171 166 162 159 156 154 152 151 151 151 151 151 151 151 151 151 151 151 151 151 150 149 147 145 143
298 297 297 296 295 295 295 295 295 296 296 297 297 297 296 296 295 294 293 292 291 289 287 285 283 278 271 261 251 240 229 220 214 210 208 206 202 197 191 186 184 182 178 172 168 164 160 157 154 152 151 150 150 150 151 152 151 151 151 152 153 153 153 152 151 150 149 147 145
298 297 297 296 295 295 295 295 296 296 297 297 297 296 296 295 294 293 293 292 290 288 287 285 282 277 269 257 241 228 220 214 211 209 208 206 202 196 189 184 181 177 172 168 164 161 157 155 153 152 151 150 149 150 151 151 151 152 152 153 154 155 154 154 153 152 151 149 148
298 298 297 296 296 295 295 296 296 297 297 297 296 295 295 294 294 293 292 291 290 288 286 284 281 276 267 253 234 221 215 211 208 207 207 205 200 194 188 183 178 172 168 165 162 159 156 155 153 152 150 149 149 150 151 151 152 152 153 155 155 156 156 155 154 153 152 151 150
299 298 298 297 296 296 296 297 297 297 297 296 295 294 294 294 293 293 292 291 289 288 286 284 281 275 264 248 229 217 212 209 206 204 204 203 197 190 184 179 172 167 165 163 160 157 155 154 153 151 149 148 148 149 150 151 152 153 154 155 156 156 155 154 154 153 153 152 151
300 299 298 298 297 297 297 297 297 297 297 296 295 294 293 293 293 292 292 290 288 286 285 284 281 274 263 246 226 215 210 206 201 200 201 200 192 184 177 170 165 163 163 160 157 155 154 154 152 150 148 147 148 149 151 151 152 153 153 154 154 154 153 153 153 152 152 152 151
300 299 299 298 298 298 298 298 297 297 297 295 294 293 293 292 292 291 290 288 286 284 283 282 280 274 263 242 220 212 208 203 197 196 196 192 184 176 168 161 160 161 160 157 155 154 154 153 150 148 147 147 148 149 150 150 150 150 150 150 150 150 150 150 151 151 151 151 151
300 300 299 299 299 299 298 298 298 297 296 295 294 293 292 292 291 289 288 286 286 284 283 281 279 272 258 233 211 205 204 199 193 191 189 183 175 166 158 154 156 158 157 155 154 154 153 152 149 147 147 147 148 149 148 147 146 146 146 147 147 147 148 148 149 149 150 150 149
301 300 300 300 299 299 299 299 298 297 296 294 293 292 292 291 290 289 287 286 286 285 284 283 280 270 247 212 198 197 199 196 190 186 180 173 167 158 151 150 153 155 155 154 153 153 152 150 149 148 147 147 147 147 145 144 143 143 143 143 144 145 145 146 147 147 148 148 149
301 301 301 300 300 299 299 299 298 297 295 294 293 292 291 290 289 288 286 284 285 285 285 285 283 267 231 195 186 186 189 191 188 181 172 166 159 151 147 148 151 154 154 153 153 152 151 150 150 149 149 147 146 144 143 141 141 141 141 141 142 142 143 144 145 145 146 147 147
302 302 301 301 300 299 299 298 297 296 295 294 293 292 291 290 288 287 285 284 284 284 285 285 284 263 216 184 175 174 179 185 183 175 166 159 153 148 147 148 151 153 154 154 153 152 151 150 150 149 147 145 144 142 141 141 140 140 140 140 139 140 140 141 142 142 143 144 146
303 302 302 301 300 299 299 298 297 296 295 294 293 292 291 290 288 286 285 284 284 283 283 284 281 257 207 178 167 165 169 175 175 169 160 153 149 148 148 149 151 154 155 155 154 153 151 151 149 148 145 143 142 141 140 140 140 140 139 139 139 139 138 137 137 137 138 140 143
303 303 302 301 300 299 299 298 296 296 295 293 292 291 290 290 288 286 285 283 284 283 282 282 275 244 195 171 161 159 161 165 165 162 156 149 147 148 150 151 152 153 154 155 154 153 152 151 149 146 144 141 141 141 141 140 140 140 140 140 139 138 136 134 133 133 135 137 140
Height
759 759 757 756 755 754 752 751 749 748 747 745 744 742 740 739 736 734 733 731 730 728 726 725 723 722 722 721 721 721 720 720 719 717 715 714 713 712 713 714 714 713 712 710 709 710 711 714 716 718 718 719 720 720 721 722 723 724 726 727 729 731 733 734 735 737 739 740 742
758 757 756 755 754 752 751 749 747 746 745 744 742 741 739 738 736 734 732 730 729 727 725 723 722 721 720 719 719 719 719 718 717 715 714 713 711 710 710 711 712 711 711 709 708 708 708 710 712 713 714 716 717 719 719 720 721 723 724 725 727 729 731 732 734 736 738 740 742
756 755 754 753 752 751 749 747 746 744 743 742 740 739 738 737 735 733 731 729 727 726 724 722 720 719 718 717 717 717 717 716 716 714 713 711 710 709 709 709 709 709 709 708 707 706 706 707 708 709 710 712 714 716 716 718 719 720 722 723 725 727 729 730 732 734 736 739 741
754 754 753 751 750 749 748 746 744 743 742 740 739 737 736 734 733 731 729 728 726 724 723 721 719 718 717 716 715 715 714 714 714 713 712 710 709 709 707 706 706 707 707 707 706 705 705 706 706 706 707 709 711 713 714 714 716 718 719 721 723 724 726 727 729 731 734 736 738
753 752 751 750 749 747 746 745 743 742 740 739 737 735 734 732 731 729 728 726 724 723 721 719 718 717 716 715 714 713 713 713 712 712 710 709 709 707 706 705 704 704 704 704 705 705 704 704 704 704 705 707 709 710 711 712 714 716 718 719 721 722 724 725 727 729 731 733 736
751 750 749 748 747 746 744 743 742 740 739 737 735 733 731 730 728 727 725 724 722 721 719 718 717 715 714 713 713 712 712 711 710 709 709 707 707 706 705 704 703 702 702 702 703 703 703 703 703 703 704 705 707 709 710 711 713 714 716 718 720 721 723 724 725 727 729 731 734
749 748 747 746 744 744 742 741 740 738 736 735 733 731 729 728 726 724 723 721 720 719 718 716 715 714 713 712 711 711 710 709 709 708 707 705 704 704 703 702 701 701 700 700 700 701 701 701 702 702 703 704 705 707 709 711 712 713 714 716 718 720 722 724 725 726 728 730 732
747 746 745 744 742 741 740 739 737 736 734 732 731 729 727 725 724 722 721 719 718 717 715 714 713 712 711 710 709 709 709 708 707 706 705 704 703 702 701 700 700 699 699 699 699 699 699 700 700 700 701 702 704 706 708 709 711 712 713 714 717 719 721 723 724 726 727 729 731
745 744 742 741 740 739 737 736 735 734 732 730 728 727 725 723 722 720 718 717 715 714 713 712 711 710 709 708 707 707 707 706 705 704 703 702 701 700 699 699 698 698 697 697 698 698 698 699 699 699 699 700 702 704 706 708 709 710 712 714 716 718 720 722 723 725 727 728 731
743 742 740 739 737 736 735 734 732 731 729 728 726 724 723 721 719 718 716 714 713 711 710 709 709 708 707 706 705 705 705 705 703 702 701 700 699 698 697 697 696 696 696 696 696 697 697 698 698 698 699 699 700 702 704 705 707 709 711 713 715 717 719 721 723 724 726 728 730
741 740 738 737 735 734 733 731 729 728 727 725 723 722 720 718 717 715 713 712 710 709 707 707 706 705 704 704 703 703 703 703 702 700 699 698 697 696 695 694 694 694 694 694 695 696 696 697 697 698 698 699 700 701 702 704 705 707 709 711 714 715 718 720 722 724 726 728 729
739 738 736 735 734 732 731 729 728 726 724 723 721 719 718 716 714 713 711 709 707 706 705 704 704 703 702 701 700 700 701 700 699 697 696 695 695 694 693 693 692 692 692 692 693 694 695 695 696 697 698 699 700 701 702 703 704 706 708 710 712 714 716 719 721 723 725 727 729
738 736 734 733 732 730 729 727 726 724 723 721 719 718 716 714 713 711 709 707 705 704 702 701 701 700 699 699 698 698 699 698 697 695 693 693 692 692 691 691 690 690 689 690 691 692 693 694 694 695 696 698 699 700 701 702 703 704 706 709 711 713 715 717 719 721 724 725 727
736 734 733 731 730 728 727 726 724 723 721 719 718 716 715 713 711 709 708 705 704 702 700 699 698 697 697 696 696 696 696 696 694 692 691 690 690 690 689 689 688 688 688 688 689 690 691 692 693 693 694 696 698 700 701 702 703 704 705 707 709 712 714 716 718 720 722 724 726
734 732 731 729 728 727 725 724 723 721 719 718 716 715 714 712 710 708 706 704 702 700 699 697 695 694 694 694 694 694 694 692 691 689 689 688 687 687 687 687 686 686 686 686 687 688 689 690 691 691 693 694 696 699 700 702 703 704 705 706 708 710 713 715 717 719 720 721 723
732 730 729 728 726 725 724 722 721 719 718 717 715 714 712 710 709 707 705 703 701 699 697 695 693 692 691 691 691 691 691 689 688 687 686 685 685 685 685 684 684 684 684 684 685 686 688 688 689 690 691 693 695 697 699 701 703 704 706 707 709 710 712 714 716 718 719 720 721
730 729 727 726 724 723 722 720 719 718 716 715 714 712 711 709 707 705 704 702 700 698 696 693 692 690 689 688 688 688 687 686 685 684 683 683 682 682 682 682 682 681 681 682 683 684 686 687 688 689 690 692 694 696 698 700 702 704 706 708 709 711 712 714 715 717 718 719 720
729 727 725 724 722 721 719 719 717 716 715 713 712 710 709 708 706 704 702 700 698 696 694 692 690 688 687 686 685 685 684 683 682 681 680 680 680 680 680 679 679 679 679 680 681 682 684 685 686 688 689 691 693 695 697 699 701 703 705 707 709 711 713 714 716 717 718 719 719
727 725 724 722 720 719 718 716 715 714 713 711 710 708 707 705 704 702 700 698 696 694 692 689 688 686 684 683 682 682 681 681 680 679 678 678 677 677 677 677 678 678 678 678 679 680 681 683 684 686 688 690 692 694 696 698 700 703 705 707 709 711 713 715 716 717 718 719 719
725 723 722 720 719 717 716 714 713 712 710 709 708 706 704 703 701 699 697 695 693 692 690 688 685 684 682 681 680 679 678 678 678 677 676 675 675 675 675 675 675 676 676 676 677 678 679 681 683 684 687 689 691 694 696 698 700 703 705 707 709 711 713 714 716 718 719 719 720
723 722 720 719 717 715 714 713 711 710 708 707 705 703 701 699 698 696 694 693 691 689 687 685 683 681 679 678 677 676 675 675 675 674 673 673 672 672 673 673 674 674 674 675 675 676 677 679 681 683 685 688 690 692 695 697 700 702 704 706 709 710 713 714 716 718 719 720 721
721 720 718 717 715 714 712 710 709 707 706 704 702 700 698 696 695 693 691 689 688 686 684 682 680 679 677 675 674 673 672 672 672 671 671 670 670 670 671 671 672 672 673 673 674 674 675 677 679 681 684 686 689 691 694 696 698 701 703 706 708 710 713 714 716 718 719 720 722
719 718 716 715 713 711 710 708 706 705 703 701 699 697 695 694 691 689 688 686 685 683 681 679 678 676 674 673 672 670 669 669 669 669 668 668 668 668 668 669 669 670 671 671 671 672 674 675 678 680 683 685 688 690 692 694 697 699 702 705 707 710 712 714 716 717 719 721 723
718 716 714 713 711 709 707 706 704 702 700 698 696 694 692 690 689 687 685 683 681 680 678 676 675 673 672 670 669 668 667 666 666 666 666 666 665 665 666 666 667 668 669 669 669 670 671 674 676 679 681 684 686 689 691 693 696 699 701 704 706 709 711 713 715 717 719 721 723
715 714 712 710 709 707 705 703 701 699 697 695 694 691 689 688 686 684 682 680 678 676 675 673 672 670 669 667 665 664 663 663 663 663 663 663 663 663 664 664 665 666 667 668 667 668 669 671 674 676 679 682 685 688 690 693 695 698 700 703 705 708 710 712 714 717 719 721 723
713 711 709 708 706 704 703 701 699 697 695 693 691 689 687 685 683 681 679 677 675 673 672 670 669 667 665 664 662 660 659 659 659 659 660 660 661 661 661 662 664 665 666 666 666 666 668 669 671 674 677 680 684 687 690 693 695 697 699 701 704 706 709 711 714 716 718 720 723
711 709 707 705 704 702 700 698 696 694 692 690 688 686 684 682 680 678 676 674 672 670 669 667 665 664 662 660 658 656 655 655 655 656 657 658 659 659 659 660 662 663 664 664 664 665 667 668 670 672 675 679 682 685 689 692 694 697 699 701 703 705 707 709 712 715 718 720 722
708 706 704 703 701 699 697 695 694 692 689 688 685 683 681 679 677 675 674 672 670 668 666 664 662 660 659 656 654 653 652 652 653 654 655 657 657 658 658 659 660 661 662 663 664 665 666 667 669 671 674 678 681 685 688 691 694 696 698 700 702 704 707 709 711 714 717 719 722
706 704 702 700 699 697 695 693 691 689 687 685 683 681 679 677 674 673 671 669 667 665 664 661 659 657 655 653 651 650 650 650 652 653 655 656 657 658 658 658 659 660 661 662 663 664 666 667 668 670 674 677 681 684 687 690 693 695 698 700 702 704 707 709 711 714 716 718 721
704 702 700 698 696 694 692 690 689 687 685 683 681 678 676 674 672 670 668 666 664 663 661 659 657 654 652 650 649 648 649 649 651 653 654 656 657 657 658 658 659 659 660 661 662 664 666 667 668 670 674 677 680 684 687 689 692 694 697 699 702 704 707 709 711 713 715 718 720
701 699 698 696 694 692 690 688 686 684 683 680 678 676 674 671 669 667 665 664 662 660 658 656 654 652 649 648 647 646 647 648 649 651 653 654 655 656 657 658 659 659 659 661 663 664 665 667 669 671 674 677 680 683 686 689 691 694 697 699 702 704 707 709 711 713 715 717 719
699 697 695 693 691 689 687 686 684 682 680 678 676 674 671 669 667 665 663 661 659 657 655 653 651 649 646 645 644 644 645 646 648 649 651 653 654 655 657 658 658 658 659 661 663 664 666 668 670 672 675 678 680 684 686 689 692 694 697 699 702 704 707 709 711 713 715 716 719
697 695 693 691 689 687 685 683 682 680 678 676 674 671 669 667 664 662 660 659 657 655 653 650 648 645 643 642 642 642 643 644 645 647 649 651 653 654 656 657 658 658 659 660 663 664 667 669 671 674 676 679 681 684 687 690 693 695 698 701 703 705 707 709 711 713 715 716 718
695 693 691 689 687 684 683 681 679 677 675 673 671 669 667 664 662 660 658 656 654 653 650 648 645 642 640 639 639 639 640 641 643 645 648 650 651 653 655 656 657 658 659 660 662 665 668 670 673 675 678 680 683 685 688 691 693 696 699 701 704 706 708 709 711 713 715 717 718
693 691 689 687 684 682 680 678 677 675 673 670 668 665 664 662 660 658 656 654 652 650 647 644 642 639 637 636 636 637 638 640 641 644 646 648 650 652 654 655 656 657 658 660 663 666 669 672 674 676 679 681 684 687 689 691 694 696 699 701 704 706 708 710 712 714 716 717 719
691 689 687 685 682 680 678 676 674 672 670 668 665 663 661 659 657 655 653 651 649 647 644 641 639 637 634 634 634 635 637 639 640 643 644 647 649 651 653 654 656 657 659 660 663 667 670 673 675 677 680 682 685 688 690 692 694 696 699 701 704 706 709 711 713 714 716 718 719
689 687 685 683 680 678 676 674 672 669 667 665 663 660 658 656 654 652 650 649 647 644 642 639 636 634 632 631 631 634 636 638 640 642 644 645 648 649 651 653 655 657 659 661 664 668 671 674 676 678 681 684 686 688 690 692 694 697 699 702 704 707 709 711 713 715 716 718 719
687 685 683 681 678 676 673 671 669 667 664 662 660 658 656 654 651 649 647 646 644 642 639 637 634 632 630 629 630 633 636 638 640 641 643 644 646 648 650 652 655 658 660 663 666 669 672 674 677 680 682 684 686 688 690 692 694 697 699 702 705 707 709 712 714 715 717 719 719
685 684 681 679 676 674 671 669 666 664 662 659 657 655 653 651 649 646 644 643 641 639 637 634 632 630 629 628 629 632 636 639 640 641 643 644 645 647 649 652 654 658 660 663 666 669 673 675 679 681 683 684 686 688 690 692 694 697 699 702 705 708 710 712 714 716 718 719 720
684 682 679 677 674 672 669 666 664 662 659 657 654 652 650 648 646 644 641 640 638 636 634 632 630 629 629 628 629 632 635 639 640 642 643 644 645 647 649 652 654 657 660 663 666 669 673 676 679 681 683 685 687 689 691 693 695 698 700 703 705 708 710 712 714 716 718 720 721
682 680 678 675 672 669 667 664 661 659 657 655 652 650 647 645 643 641 639 637 635 633 631 629 627 627 627 627 628 631 635 638 640 642 643 644 646 648 650 652 655 658 660 663 666 670 673 677 679 681 683 685 687 689 691 693 696 698 700 703 705 707 710 712 714 716 718 720 723